Location: Newark
(35.2161°N, 26.1013°E)
Time: 22:07:04
(UTC+00:00)

BEESAT 2 - Pass Details

Date: 29 January 2020
Orbit: 493 x 534 km, 64.9° (Epoch: 19 February)

Event Time Altitude Azimuth Distance (km) Brightness Sun altitude
Rises 18:32:52 0° 250° (WSW) 2,628 ? -35.3°
Reaches altitude 10° 18:35:48 10° 274° (W) 1,754 ? -35.9°
Enters shadow 18:36:11 11° 279° (W) 1,668 ? -36.0°
